Location: Northcutt
(34.7304°N, 84.4305°W)
Time: 08:45:44
(UTC+00:00)

S-56A Canister/Altair - Pass Details

Date: 09 October 2022
Orbit: 638 x 2494 km, 38.9° (Epoch: 08 December)

Event Time Altitude Azimuth Distance (km) Brightness Sun altitude
Rises 05:53:02 0° 258° (WSW) 6,128 - -60.8°
Reaches altitude 10° 05:57:15 10° 260° (W) 5,026 - -60.6°
Maximum altitude 06:11:25 78° 347° (NNW) 1,983 - -59.6°
Drops below altitude 10° 06:21:15 10° 74° (ENE) 3,616 - -58.7°
Exits shadow 06:21:52 - 75° (ENE) 3,791 11.3 -58.7°
Sets 06:23:48 0° 76° (ENE) 4,375 11.7 -58.5°
